AAL2495 KCLT-KPBI

Flight info

Callsign AAL2495
Flight time 1h 27m
Altitude 32000
Route ICONS5 NOOKS WURFL Q83 JEVED Q97 KENLL CPTAN3
Aircraft B738/M-SDE2E3FGHIRWXY/LB1

Departure

Time 2026-05-08 23:33
Airport Charlotte Douglas International Airport (KCLT)

Arrival

Time 2026-05-09 01:01
Airport Palm Beach International Airport (KPBI)
Time Latitude Longitude Altitude Speed Heading
2026-05-08 23:12 35.21830 -80.94470 731 ft 0 kts 278°
2026-05-08 23:26 35.21826 -80.94446 731 ft 4 kts 279°
2026-05-08 23:26 35.21825 -80.94414 730 ft 4 kts 255°
2026-05-08 23:26 35.21837 -80.94390 730 ft 4 kts 198°
2026-05-08 23:26 35.21847 -80.94388 731 ft 1 kts 176°
2026-05-08 23:28 35.21829 -80.94386 731 ft 9 kts 176°
2026-05-08 23:28 35.21735 -80.94378 731 ft 15 kts 175°
2026-05-08 23:29 35.21650 -80.94429 731 ft 15 kts 241°
2026-05-08 23:29 35.21625 -80.94569 731 ft 18 kts 266°
2026-05-08 23:29 35.21616 -80.94721 730 ft 18 kts 265°
2026-05-08 23:29 35.21608 -80.94869 732 ft 17 kts 269°
2026-05-08 23:30 35.21611 -80.94996 732 ft 14 kts 303°
2026-05-08 23:30 35.21703 -80.95029 733 ft 15 kts 356°
2026-05-08 23:30 35.21833 -80.95041 733 ft 22 kts 355°
2026-05-08 23:30 35.21990 -80.95054 733 ft 22 kts 356°
2026-05-08 23:31 35.22144 -80.95067 733 ft 22 kts 356°
2026-05-08 23:31 35.22292 -80.95080 733 ft 21 kts 356°
2026-05-08 23:31 35.22437 -80.95093 732 ft 21 kts 355°
2026-05-08 23:31 35.22577 -80.95104 732 ft 20 kts 355°
2026-05-08 23:32 35.22705 -80.95124 732 ft 16 kts 329°
2026-05-08 23:32 35.22726 -80.95250 737 ft 16 kts 265°
2026-05-08 23:32 35.22689 -80.95312 740 ft 9 kts 180°
2026-05-08 23:32 35.22628 -80.95306 740 ft 9 kts 176°
2026-05-08 23:33 35.22467 -80.95295 739 ft 58 kts 176°
2026-05-08 23:33 35.21797 -80.95236 741 ft 132 kts 176°
2026-05-08 23:33 35.20713 -80.95131 1012 ft 167 kts 176°
2026-05-08 23:33 35.19503 -80.95003 1673 ft 185 kts 175°
2026-05-08 23:34 35.18141 -80.94838 2246 ft 203 kts 175°
2026-05-08 23:34 35.16633 -80.94653 2512 ft 232 kts 175°
2026-05-08 23:34 35.14946 -80.94512 2769 ft 253 kts 182°
2026-05-08 23:34 35.13168 -80.94615 3415 ft 258 kts 184°
2026-05-08 23:35 35.11381 -80.94760 4346 ft 256 kts 184°
2026-05-08 23:35 35.09599 -80.94877 5256 ft 258 kts 184°
2026-05-08 23:35 35.07793 -80.94986 6139 ft 261 kts 184°
2026-05-08 23:35 35.05963 -80.95095 6947 ft 266 kts 185°
2026-05-08 23:36 35.04083 -80.95207 7699 ft 274 kts 185°
2026-05-08 23:36 35.02169 -80.95321 8548 ft 277 kts 186°
2026-05-08 23:36 35.00253 -80.95438 9311 ft 285 kts 187°
2026-05-08 23:36 34.98240 -80.95562 10086 ft 289 kts 188°
2026-05-08 23:37 34.96153 -80.95694 10490 ft 308 kts 188°
2026-05-08 23:37 34.93961 -80.95835 10666 ft 331 kts 187°
2026-05-08 23:37 34.91576 -80.95986 10834 ft 354 kts 187°
2026-05-08 23:37 34.89064 -80.96138 11211 ft 366 kts 188°
2026-05-08 23:38 34.86506 -80.96288 11878 ft 369 kts 188°
2026-05-08 23:38 34.83934 -80.96441 12593 ft 372 kts 188°
2026-05-08 23:38 34.81338 -80.96599 13266 ft 375 kts 188°
2026-05-08 23:38 34.78716 -80.96754 13885 ft 380 kts 188°
2026-05-08 23:39 34.76060 -80.96855 14466 ft 383 kts 187°
2026-05-08 23:39 34.73382 -80.96928 15086 ft 386 kts 187°
2026-05-08 23:39 34.70689 -80.96998 15690 ft 389 kts 188°
2026-05-08 23:39 34.67972 -80.97076 16262 ft 392 kts 188°
2026-05-08 23:40 34.65238 -80.97159 16845 ft 394 kts 188°
2026-05-08 23:40 34.62485 -80.97246 17401 ft 397 kts 189°
2026-05-08 23:40 34.59742 -80.97384 17949 ft 398 kts 191°
2026-05-08 23:40 34.57006 -80.97626 18477 ft 400 kts 192°
2026-05-08 23:41 34.54192 -80.97917 18957 ft 402 kts 193°
2026-05-08 23:41 34.51394 -80.98212 19432 ft 405 kts 193°
2026-05-08 23:41 34.48578 -80.98501 19905 ft 408 kts 193°
2026-05-08 23:41 34.45739 -80.98783 20378 ft 410 kts 193°
2026-05-08 23:42 34.42887 -80.99058 20853 ft 413 kts 193°
2026-05-08 23:42 34.40008 -80.99333 21276 ft 415 kts 194°
2026-05-08 23:42 34.37106 -80.99609 21623 ft 421 kts 194°
2026-05-08 23:42 34.34166 -80.99886 22014 ft 425 kts 194°
2026-05-08 23:43 34.31202 -81.00162 22451 ft 427 kts 194°
2026-05-08 23:43 34.28232 -81.00438 22869 ft 429 kts 194°
2026-05-08 23:43 34.25279 -81.00713 23265 ft 432 kts 195°
2026-05-08 23:43 34.22276 -81.00993 23647 ft 435 kts 195°
2026-05-08 23:44 34.19340 -81.01266 23976 ft 437 kts 195°
2026-05-08 23:44 34.16216 -81.01554 24371 ft 437 kts 195°
2026-05-08 23:44 34.13186 -81.01834 24706 ft 437 kts 195°
2026-05-08 23:44 34.10151 -81.02114 25124 ft 436 kts 195°
2026-05-08 23:45 34.07121 -81.02396 25475 ft 437 kts 195°
2026-05-08 23:45 34.04080 -81.02679 25787 ft 439 kts 195°
2026-05-08 23:45 34.01028 -81.02964 26099 ft 440 kts 195°
2026-05-08 23:45 33.97969 -81.03232 26408 ft 444 kts 193°
2026-05-08 23:46 33.94853 -81.03301 26723 ft 449 kts 191°
2026-05-08 23:46 33.91714 -81.03276 27031 ft 451 kts 190°
2026-05-08 23:46 33.88567 -81.03220 27298 ft 452 kts 189°
2026-05-08 23:46 33.85425 -81.03158 27673 ft 451 kts 189°
2026-05-08 23:47 33.82288 -81.03101 28024 ft 450 kts 189°
2026-05-08 23:47 33.80217 -81.03069 28240 ft 449 kts 189°
2026-05-08 23:47 33.76079 -81.03015 28745 ft 447 kts 189°
2026-05-08 23:47 33.72977 -81.02981 29203 ft 444 kts 190°
2026-05-08 23:48 33.69899 -81.02950 29620 ft 442 kts 190°
2026-05-08 23:48 33.67816 -81.02930 29884 ft 441 kts 190°
2026-05-08 23:48 33.64752 -81.02903 30243 ft 440 kts 190°
2026-05-08 23:48 33.61697 -81.02877 30487 ft 440 kts 189°
2026-05-08 23:49 33.58658 -81.02855 30624 ft 444 kts 189°
2026-05-08 23:49 33.55562 -81.02831 30851 ft 445 kts 189°
2026-05-08 23:49 33.52467 -81.02802 31209 ft 443 kts 189°
2026-05-08 23:49 33.49387 -81.02771 31568 ft 442 kts 190°
2026-05-08 23:50 33.46309 -81.02740 31871 ft 441 kts 190°
2026-05-08 23:50 33.43234 -81.02712 32039 ft 443 kts 190°
2026-05-08 23:50 33.37033 -81.02660 32029 ft 446 kts 190°
2026-05-08 23:51 33.30859 -81.02599 32024 ft 442 kts 189°
2026-05-08 23:51 33.24740 -81.02541 32030 ft 442 kts 190°
2026-05-08 23:52 33.18586 -81.02486 32028 ft 442 kts 190°
2026-05-08 23:52 33.12461 -81.02431 32029 ft 442 kts 190°
2026-05-08 23:53 33.06305 -81.02375 32031 ft 442 kts 189°
2026-05-08 23:53 33.00146 -81.02319 32029 ft 443 kts 189°
2026-05-08 23:54 32.93980 -81.02263 32027 ft 443 kts 189°
2026-05-08 23:55 32.84768 -81.02179 32023 ft 443 kts 189°
2026-05-08 23:55 32.78597 -81.02123 32027 ft 443 kts 189°
2026-05-08 23:56 32.72417 -81.02067 32033 ft 444 kts 189°
2026-05-08 23:56 32.66221 -81.02012 32033 ft 446 kts 189°
2026-05-08 23:57 32.60028 -81.01955 32037 ft 447 kts 189°
2026-05-08 23:57 32.53800 -81.01899 32022 ft 447 kts 189°
2026-05-08 23:58 32.47584 -81.01945 32029 ft 446 kts 190°
2026-05-08 23:58 32.41364 -81.02086 32036 ft 447 kts 190°
2026-05-08 23:59 32.35134 -81.02210 32031 ft 448 kts 190°
2026-05-08 23:59 32.28896 -81.02319 32015 ft 448 kts 190°
2026-05-09 00:00 32.22701 -81.02427 32026 ft 448 kts 190°
2026-05-09 00:00 32.16483 -81.02538 32033 ft 447 kts 190°
2026-05-09 00:01 32.10254 -81.02648 32004 ft 447 kts 190°
2026-05-09 00:01 32.04041 -81.02757 32002 ft 446 kts 190°
2026-05-09 00:02 31.97834 -81.02873 31999 ft 445 kts 190°
2026-05-09 00:02 31.91701 -81.03041 32006 ft 444 kts 191°
2026-05-09 00:03 31.85518 -81.03221 32003 ft 444 kts 191°
2026-05-09 00:03 31.79343 -81.03393 32007 ft 444 kts 190°
2026-05-09 00:04 31.73166 -81.03561 32001 ft 443 kts 191°
2026-05-09 00:04 31.67039 -81.03728 32014 ft 443 kts 191°
2026-05-09 00:05 31.60938 -81.03894 32022 ft 443 kts 191°
2026-05-09 00:05 31.54780 -81.04139 32021 ft 442 kts 192°
2026-05-09 00:06 31.48649 -81.04566 32028 ft 441 kts 193°
2026-05-09 00:06 31.42520 -81.04991 32027 ft 441 kts 193°
2026-05-09 00:07 31.36382 -81.05391 32033 ft 442 kts 192°
2026-05-09 00:07 31.30236 -81.05784 32036 ft 442 kts 192°
2026-05-09 00:08 31.24177 -81.06168 32032 ft 443 kts 192°
2026-05-09 00:08 31.17989 -81.06343 32014 ft 446 kts 190°
2026-05-09 00:09 31.11815 -81.06420 32026 ft 447 kts 190°
2026-05-09 00:09 31.05595 -81.06522 32038 ft 448 kts 191°
2026-05-09 00:10 30.99350 -81.06646 32032 ft 449 kts 191°
2026-05-09 00:10 30.93082 -81.06777 32008 ft 450 kts 191°
2026-05-09 00:11 30.86828 -81.06906 32026 ft 451 kts 191°
2026-05-09 00:11 30.80589 -81.07035 32040 ft 452 kts 191°
2026-05-09 00:12 30.74284 -81.07164 32034 ft 453 kts 191°
2026-05-09 00:12 30.67974 -81.07293 32033 ft 454 kts 191°
2026-05-09 00:13 30.61660 -81.07426 32023 ft 453 kts 191°
2026-05-09 00:13 30.55385 -81.07761 32027 ft 450 kts 193°
2026-05-09 00:14 30.49133 -81.08186 32024 ft 450 kts 193°
2026-05-09 00:14 30.42876 -81.08590 32030 ft 450 kts 192°
2026-05-09 00:15 30.36624 -81.08971 32027 ft 449 kts 192°
2026-05-09 00:15 30.30424 -81.09342 32022 ft 449 kts 192°
2026-05-09 00:16 30.24190 -81.09715 32027 ft 448 kts 192°
2026-05-09 00:16 30.17937 -81.10089 32028 ft 448 kts 192°
2026-05-09 00:17 30.11711 -81.10461 32030 ft 447 kts 192°
2026-05-09 00:17 30.05498 -81.10832 32022 ft 447 kts 193°
2026-05-09 00:18 29.99323 -81.11201 32027 ft 447 kts 193°
2026-05-09 00:18 29.93123 -81.11571 32032 ft 447 kts 193°
2026-05-09 00:19 29.86929 -81.11940 32027 ft 448 kts 193°
2026-05-09 00:19 29.80693 -81.12302 31996 ft 450 kts 191°
2026-05-09 00:20 29.74408 -81.12355 32006 ft 453 kts 189°
2026-05-09 00:20 29.68164 -81.12320 32010 ft 453 kts 189°
2026-05-09 00:21 29.61854 -81.12342 32000 ft 454 kts 190°
2026-05-09 00:21 29.55498 -81.11767 31986 ft 479 kts 170°
2026-05-09 00:22 29.49217 -81.09072 31985 ft 482 kts 168°
2026-05-09 00:22 29.42928 -81.06368 31990 ft 482 kts 169°
2026-05-09 00:23 29.36621 -81.03733 31990 ft 483 kts 169°
2026-05-09 00:23 29.30293 -81.01123 31992 ft 483 kts 169°
2026-05-09 00:24 29.23970 -80.98518 32009 ft 483 kts 169°
2026-05-09 00:24 29.17634 -80.95909 32003 ft 483 kts 169°
2026-05-09 00:25 29.11306 -80.93304 32008 ft 483 kts 169°
2026-05-09 00:25 29.04971 -80.90699 32014 ft 483 kts 169°
2026-05-09 00:26 28.98673 -80.88114 32007 ft 483 kts 169°
2026-05-09 00:26 28.92337 -80.85517 31970 ft 483 kts 168°
2026-05-09 00:27 28.85999 -80.82927 31979 ft 483 kts 168°
2026-05-09 00:27 28.79667 -80.80342 31963 ft 483 kts 168°
2026-05-09 00:28 28.73333 -80.77759 31968 ft 483 kts 168°
2026-05-09 00:28 28.67097 -80.75217 31973 ft 483 kts 168°
2026-05-09 00:29 28.60770 -80.72644 31963 ft 482 kts 168°
2026-05-09 00:29 28.54480 -80.70090 31970 ft 482 kts 168°
2026-05-09 00:30 28.48267 -80.67569 31987 ft 482 kts 168°
2026-05-09 00:30 28.41950 -80.65009 31975 ft 482 kts 168°
2026-05-09 00:30 28.38761 -80.63720 31412 ft 488 kts 168°
2026-05-09 00:31 28.35566 -80.62427 30807 ft 485 kts 168°
2026-05-09 00:31 28.32401 -80.61142 30333 ft 480 kts 168°
2026-05-09 00:31 28.29265 -80.59872 29828 ft 475 kts 168°
2026-05-09 00:31 28.26205 -80.58636 29290 ft 471 kts 168°
2026-05-09 00:32 28.23135 -80.57396 28773 ft 465 kts 168°
2026-05-09 00:32 28.20101 -80.56172 28279 ft 460 kts 168°
2026-05-09 00:32 28.17098 -80.54961 27785 ft 455 kts 168°
2026-05-09 00:32 28.14134 -80.53767 27295 ft 451 kts 168°
2026-05-09 00:33 28.11212 -80.52589 26815 ft 440 kts 168°
2026-05-09 00:33 28.08362 -80.51439 26344 ft 428 kts 168°
2026-05-09 00:33 28.05590 -80.50323 25900 ft 419 kts 168°
2026-05-09 00:33 28.02869 -80.49230 25443 ft 410 kts 168°
2026-05-09 00:34 28.00206 -80.48164 25016 ft 402 kts 168°
2026-05-09 00:34 27.97646 -80.47139 24613 ft 403 kts 167°
2026-05-09 00:34 27.94957 -80.46069 24232 ft 416 kts 167°
2026-05-09 00:34 27.92196 -80.44968 24049 ft 426 kts 167°
2026-05-09 00:35 27.89428 -80.43856 23393 ft 429 kts 167°
2026-05-09 00:35 27.86644 -80.42735 22715 ft 420 kts 166°
2026-05-09 00:35 27.83916 -80.41634 22065 ft 412 kts 166°
2026-05-09 00:35 27.81243 -80.40559 21448 ft 404 kts 166°
2026-05-09 00:36 27.79455 -80.39841 21040 ft 399 kts 166°
2026-05-09 00:36 27.76896 -80.38816 20461 ft 392 kts 166°
2026-05-09 00:36 27.74349 -80.37798 19892 ft 386 kts 166°
2026-05-09 00:36 27.71836 -80.36794 19317 ft 380 kts 166°
2026-05-09 00:37 27.69353 -80.35802 18739 ft 376 kts 166°
2026-05-09 00:37 27.66899 -80.34822 18155 ft 372 kts 165°
2026-05-09 00:37 27.64505 -80.33747 17570 ft 368 kts 160°
2026-05-09 00:37 27.62203 -80.32531 17045 ft 364 kts 159°
2026-05-09 00:38 27.59942 -80.31292 16534 ft 359 kts 158°
2026-05-09 00:38 27.57692 -80.30065 16030 ft 359 kts 158°
2026-05-09 00:38 27.55428 -80.28849 15533 ft 361 kts 158°
2026-05-09 00:38 27.53161 -80.27645 15034 ft 359 kts 158°
2026-05-09 00:39 27.50911 -80.26457 14522 ft 355 kts 158°
2026-05-09 00:39 27.48682 -80.25283 14031 ft 351 kts 158°
2026-05-09 00:39 27.46520 -80.24144 13631 ft 345 kts 158°
2026-05-09 00:39 27.44360 -80.23006 13225 ft 341 kts 158°
2026-05-09 00:40 27.42197 -80.21868 12857 ft 343 kts 158°
2026-05-09 00:40 27.40030 -80.20729 12479 ft 344 kts 158°
2026-05-09 00:40 27.37858 -80.19587 12106 ft 345 kts 158°
2026-05-09 00:41 27.33523 -80.17307 11355 ft 341 kts 158°
2026-05-09 00:41 27.31405 -80.16192 10984 ft 331 kts 158°
2026-05-09 00:41 27.29351 -80.15112 10628 ft 320 kts 158°
2026-05-09 00:41 27.27363 -80.14068 10284 ft 311 kts 158°
2026-05-09 00:42 27.25432 -80.13057 9949 ft 302 kts 159°
2026-05-09 00:42 27.23562 -80.12132 9906 ft 283 kts 160°
2026-05-09 00:42 27.21748 -80.11261 9239 ft 288 kts 160°
2026-05-09 00:42 27.19922 -80.10386 8842 ft 283 kts 159°
2026-05-09 00:43 27.18126 -80.09521 8485 ft 278 kts 159°
2026-05-09 00:43 27.16381 -80.08677 8136 ft 274 kts 159°
2026-05-09 00:43 27.14642 -80.07835 7798 ft 271 kts 159°
2026-05-09 00:43 27.12914 -80.06996 7466 ft 270 kts 158°
2026-05-09 00:44 27.11198 -80.06149 7132 ft 270 kts 157°
2026-05-09 00:44 27.09482 -80.05298 6798 ft 270 kts 157°
2026-05-09 00:44 27.07763 -80.04446 6471 ft 271 kts 157°
2026-05-09 00:44 27.06013 -80.03579 6103 ft 278 kts 156°
2026-05-09 00:45 27.04228 -80.02694 5742 ft 281 kts 156°
2026-05-09 00:45 27.02432 -80.01805 5397 ft 283 kts 156°
2026-05-09 00:45 27.00620 -80.00910 5041 ft 285 kts 156°
2026-05-09 00:45 26.98800 -80.00011 4682 ft 286 kts 156°
2026-05-09 00:46 26.96958 -79.99151 4302 ft 288 kts 163°
2026-05-09 00:46 26.94977 -79.99055 4041 ft 284 kts 194°
2026-05-09 00:46 26.93218 -79.99913 4010 ft 270 kts 215°
2026-05-09 00:46 26.91784 -80.01133 4013 ft 247 kts 219°
2026-05-09 00:47 26.90502 -80.02264 3987 ft 223 kts 219°
2026-05-09 00:47 26.89339 -80.03283 3972 ft 202 kts 219°
2026-05-09 00:47 26.88239 -80.04240 3985 ft 198 kts 219°
2026-05-09 00:47 26.87139 -80.05192 3999 ft 204 kts 219°
2026-05-09 00:48 26.85990 -80.06183 4010 ft 215 kts 219°
2026-05-09 00:48 26.84793 -80.07214 3997 ft 216 kts 219°
2026-05-09 00:48 26.83599 -80.08251 4000 ft 217 kts 219°
2026-05-09 00:48 26.82407 -80.09289 4009 ft 216 kts 219°
2026-05-09 00:49 26.81253 -80.10320 4005 ft 206 kts 225°
2026-05-09 00:49 26.80621 -80.11666 4002 ft 194 kts 263°
2026-05-09 00:49 26.80497 -80.13189 3997 ft 197 kts 266°
2026-05-09 00:49 26.80380 -80.14701 3995 ft 193 kts 266°
2026-05-09 00:50 26.80268 -80.16192 3989 ft 191 kts 266°
2026-05-09 00:50 26.80160 -80.17657 3995 ft 190 kts 265°
2026-05-09 00:50 26.80052 -80.19133 3987 ft 190 kts 265°
2026-05-09 00:50 26.79935 -80.20609 3956 ft 191 kts 264°
2026-05-09 00:51 26.79789 -80.22092 3873 ft 192 kts 264°
2026-05-09 00:51 26.79639 -80.23580 3795 ft 191 kts 264°
2026-05-09 00:51 26.79490 -80.25055 3722 ft 190 kts 263°
2026-05-09 00:51 26.79340 -80.26529 3653 ft 191 kts 263°
2026-05-09 00:52 26.79191 -80.28003 3589 ft 190 kts 263°
2026-05-09 00:52 26.79042 -80.29458 3522 ft 191 kts 263°
2026-05-09 00:52 26.78890 -80.30931 3465 ft 190 kts 263°
2026-05-09 00:52 26.78738 -80.32398 3404 ft 189 kts 263°
2026-05-09 00:53 26.78585 -80.33864 3361 ft 189 kts 263°
2026-05-09 00:53 26.78428 -80.35321 3321 ft 188 kts 259°
2026-05-09 00:53 26.77833 -80.36569 3306 ft 187 kts 220°
2026-05-09 00:53 26.76786 -80.37494 3306 ft 193 kts 217°
2026-05-09 00:54 26.75709 -80.38383 3237 ft 195 kts 205°
2026-05-09 00:54 26.74412 -80.38627 3219 ft 187 kts 176°
2026-05-09 00:54 26.73106 -80.38585 3168 ft 188 kts 178°
2026-05-09 00:54 26.71801 -80.38519 3130 ft 188 kts 167°
2026-05-09 00:55 26.70569 -80.38065 3100 ft 186 kts 158°
2026-05-09 00:55 26.69550 -80.37240 3030 ft 183 kts 118°
2026-05-09 00:55 26.69361 -80.35895 3054 ft 177 kts 86°
2026-05-09 00:55 26.69370 -80.34486 2985 ft 181 kts 92°
2026-05-09 00:56 26.69313 -80.33135 2945 ft 170 kts 93°
2026-05-09 00:56 26.69253 -80.31807 2974 ft 168 kts 93°
2026-05-09 00:56 26.69195 -80.30520 2987 ft 165 kts 92°
2026-05-09 00:56 26.69137 -80.29246 2981 ft 163 kts 92°
2026-05-09 00:57 26.69080 -80.27980 2926 ft 163 kts 93°
2026-05-09 00:57 26.69023 -80.26725 2745 ft 160 kts 93°
2026-05-09 00:57 26.68969 -80.25505 2549 ft 155 kts 93°
2026-05-09 00:57 26.68917 -80.24322 2342 ft 153 kts 94°
2026-05-09 00:58 26.68862 -80.23114 2159 ft 157 kts 94°
2026-05-09 00:58 26.68807 -80.21892 1959 ft 156 kts 94°
2026-05-09 00:58 26.68754 -80.20682 1756 ft 155 kts 94°
2026-05-09 00:58 26.68701 -80.19482 1553 ft 153 kts 94°
2026-05-09 00:59 26.68648 -80.18289 1345 ft 154 kts 94°
2026-05-09 00:59 26.68596 -80.17103 1156 ft 152 kts 94°
2026-05-09 00:59 26.68544 -80.15922 964 ft 154 kts 94°
2026-05-09 00:59 26.68492 -80.14743 770 ft 154 kts 93°
2026-05-09 01:00 26.68439 -80.13563 568 ft 151 kts 92°
2026-05-09 01:00 26.68393 -80.12396 409 ft 151 kts 91°
2026-05-09 01:00 26.68339 -80.11233 179 ft 149 kts 92°
2026-05-09 01:00 26.68296 -80.10126 28 ft 135 kts 93°
2026-05-09 01:01 26.68253 -80.09179 21 ft 109 kts 93°
2026-05-09 01:01 26.68245 -80.08716 21 ft 37 kts 70°
2026-05-09 01:01 26.68319 -80.08655 7 ft 0 kts 330°
2026-05-09 01:02 26.68321 -80.08658 3 ft 1 kts 320°
2026-05-09 01:02 26.68333 -80.08681 27 ft 0 kts 289°
2026-05-09 01:03 26.68333 -80.08682 27 ft 0 kts 289°
2026-05-09 01:03 26.68336 -80.08693 21 ft 6 kts 283°
2026-05-09 01:03 26.68341 -80.08776 21 ft 13 kts 272°
2026-05-09 01:03 26.68345 -80.08867 21 ft 4 kts 272°
2026-05-09 01:04 26.68346 -80.08906 21 ft 7 kts 272°
2026-05-09 01:04 26.68349 -80.08981 21 ft 15 kts 272°
2026-05-09 01:04 26.68359 -80.09156 21 ft 27 kts 272°
2026-05-09 01:04 26.68395 -80.09353 21 ft 22 kts 312°
2026-05-09 01:05 26.68478 -80.09362 21 ft 6 kts 40°
2026-05-09 01:05 26.68482 -80.09358 21 ft 0 kts 39°
2026-05-09 01:05 26.68556 -80.09374 21 ft 9 kts 319°
2026-05-09 01:06 26.68595 -80.09381 21 ft 5 kts 26°
2026-05-09 01:06 26.68615 -80.09367 21 ft 3 kts 34°
2026-05-09 01:06 26.68629 -80.09355 21 ft 2 kts 37°
2026-05-09 01:06 26.68633 -80.09352 21 ft 0 kts 37°
2026-05-09 01:07 26.68635 -80.09350 21 ft 0 kts 37°
2026-05-09 01:10 26.79696 -80.23011 3823 ft 191 kts 263°
2026-05-09 01:10 26.79547 -80.24490 3749 ft 191 kts 263°
2026-05-09 01:11 26.79420 -80.25738 3836 ft 190 kts 263°
2026-05-09 01:11 26.68588 -80.16940 1146 ft 151 kts 94°
2026-05-09 01:11 26.68418 -80.13059 525 ft 149 kts 93°
2026-05-09 01:11 26.68373 -80.11953 310 ft 151 kts 92°
2026-05-09 01:12 26.68325 -80.10866 110 ft 147 kts 92°
2026-05-09 01:12 26.68280 -80.09803 21 ft 128 kts 94°
2026-05-09 01:12 26.68241 -80.08938 21 ft 75 kts 92°
2026-05-09 01:12 26.68418 -80.13056 525 ft 149 kts 93°
2026-05-09 01:13 26.68370 -80.11891 296 ft 152 kts 92°
2026-05-09 01:13 26.68321 -80.10746 97 ft 145 kts 93°
2026-05-09 01:13 26.68275 -80.09731 21 ft 126 kts 94°
2026-05-09 01:13 26.68241 -80.08922 21 ft 70 kts 92°